Location: Lake of the Woods (North-East)
(49.6672°N, 94.8656°W)
Time: 13:53:16
(UTC-05:00)

Daily predictions for brighter satellites

Satellite Brightness Start Highest point End
(mag) Time Altitude Azimuth Time Altitude Azimuth Time Altitude Azimuth
Lacrosse 5 1.9 20:33:58 10° WNW 20:39:04 87° SSW 20:44:08 10° SE
Cosmos 2123 Rocket 4.1 20:33:43 10° N 20:39:57 90° W 20:46:08 10° S
H-2A R/B 2.8 20:39:19 10° SSE 20:43:13 79° ENE 20:47:12 10° N
Cosmos 1980 Rocket 3.5 20:40:09 10° SE 20:43:58 19° E 20:47:47 10° ENE
Cosmos 2369 3.7 20:38:54 10° SSW 20:44:29 63° ESE 20:50:09 10° NE
EO 1 Delta rocket 4.0 20:41:43 10° NNE 20:46:20 59° E 20:51:32 10° S
NOSS 2-1 (D) 4.0 20:43:59 10° SW 20:47:58 67° NW 20:52:48 10° NE
NOSS 2-1 (C) 4.0 20:45:02 10° SW 20:49:00 67° NW 20:53:51 10° NE
Cosmos 2150 Rocket 4.0 20:44:44 10° NNW 20:49:54 69° ENE 20:55:02 10° SSE
Cosmos 1975 3.1 20:47:39 10° S 20:51:37 49° E 20:55:36 10° NNE
Lacrosse 5 rocket 3.1 20:50:00 10° WNW 20:53:01 23° SW 20:55:56 10° S
SPOT 5 4.1 20:49:49 10° ESE 20:53:49 25° ENE 20:57:40 10° N
BREEZE-M TANK 4.3 20:37:28 10° W 20:53:59 56° SSW 20:58:04 10° SE
ERS-1 Rocket 3.3 20:49:52 10° SE 20:54:41 48° ENE 20:59:31 10° N
Helios 1B rocket 3.8 20:55:10 10° N 20:59:07 44° WNW 21:03:02 10° SW
FENGYUN 3A 4.1 20:55:54 10° S 21:01:13 67° WSW 21:06:35 10° NNW
Cosmos 1656 3.8 20:58:14 10° S 21:03:39 52° ESE 21:09:02 10° NE
Cosmos 2263 Rocket 3.8 21:00:27 10° N 21:04:41 21° NE 21:08:53 10° E
NOSS 2-1 (E) 4.4 21:01:07 10° WSW 21:05:09 55° NW 21:10:08 10° NE
CZ-2D R/B 4.1 21:01:53 10° S 21:05:41 54° W 21:09:31 10° NNW
Cosmos 1898 Rocket 3.6 21:00:39 10° NNW 21:06:00 86° WSW 21:11:16 10° SSE
SJ-11-01 4.3 21:02:40 10° SSE 21:07:18 65° ENE 21:11:57 10° N
Cosmos 2227 Rocket 3.6 21:03:35 10° NW 21:08:46 37° WSW 21:13:55 10° S
Resurs 01 Rocket 4.0 21:06:02 10° SSW 21:09:40 24° W 21:13:19 10° NW
CZ-4 DEB 2.7 21:07:44 10° SSE 21:10:51 65° ENE 21:13:59 10° N
Cosmos 1500 3.3 21:09:03 10° S 21:12:43 53° E 21:16:25 10° NNE
Cosmos 1153 Rocket 4.4 21:09:27 10° S 21:15:37 76° E 21:21:46 10° NNE
Cosmos 1340 3.1 21:13:49 10° N 21:17:29 43° ENE 21:20:20 15° SE
Cosmos 2322 Rocket 3.8 21:16:55 13° ESE 21:17:37 14° E 21:20:16 10° ENE
YAOGAN 6 4.0 21:16:13 16° ESE 21:18:14 24° ENE 21:21:19 10° N
Terra 4.0 21:16:46 10° ENE 21:18:23 12° NE 21:19:59 10° NNE
Meteor 1-12 Rocket 4.4 21:15:37 10° SSW 21:21:23 84° W 21:27:20 10° N
Meteor 1-21 4.4 21:18:00 10° N 21:23:43 58° ENE 21:29:03 12° SSE
Cosmos 468 Rocket 4.0 21:18:44 10° S 21:23:44 58° ESE 21:28:48 10° NNE
Cosmos 2297 Rocket 3.5 21:18:39 10° NW 21:23:52 39° WSW 21:29:04 10° S
USA 215 3.7 21:18:47 10° E 21:25:08 56° NNE 21:31:30 10° WNW
ALOS 3.9 21:24:44 10° SSW 21:28:59 34° W 21:33:15 10° NNW
Cosmos 1939 Rocket 2.9 21:25:01 11° SSE 21:29:04 78° ENE 21:33:16 10° N
USA 186 3.7 21:26:40 10° SSW 21:29:15 26° W 21:31:42 10° NW
Cosmos 841 Rocket 4.2 21:25:15 10° SSE 21:29:48 31° E 21:34:20 10° NE
Cosmos 1802 Rocket 4.2 21:25:45 10° SSE 21:31:57 54° E 21:38:12 10° NNE
Cosmos 2227 4.2 21:27:10 10° NNW 21:32:57 77° ENE 21:37:27 17° SE
Cosmos 1726 Rocket 4.2 21:30:18 16° SSE 21:33:14 34° E 21:37:15 10° NNE
Cosmos 1814 Rocket 4.0 21:30:10 10° S 21:35:25 63° ESE 21:40:40 10° NNE
MetOp-A 4.4 21:33:48 17° SE 21:37:47 55° ENE 21:43:01 10° N
Cosmos 405 Rocket 4.3 21:35:06 10° NNE 21:37:50 19° ENE 21:38:40 17° E
Cosmos 2016 Rocket 4.1 21:36:06 10° SSE 21:42:03 54° E 21:48:06 10° NNE
ASTEX 1 3.8 21:37:36 10° NNE 21:42:23 43° E 21:45:35 19° SSE
Cosmos 1825 Rocket 3.5 21:38:37 10° N 21:43:05 89° WNW 21:46:50 14° S
Tiangong 1 3.2 21:48:41 10° SW 21:50:34 15° SSW 21:50:47 15° SSW
RESURS DK-1 3.6 21:48:26 10° NW 21:52:17 37° WSW 21:55:34 13° S
BREEZE-M DEB (TANK) 2.7 21:50:19 10° W 21:52:27 35° SSW 21:53:27 28° SSE
Cosmos 1743 2.6 21:48:41 10° S 21:52:36 85° E 21:56:33 10° N
Cosmos 1953 Rocket 3.5 21:49:35 10° N 21:54:04 88° ENE 21:57:08 20° S
Cosmos 2173 Rocket 4.0 21:47:53 10° S 21:54:15 86° E 22:00:36 10° N
ATLAS CENTAUR R/B 4.4 21:51:13 10° WNW 21:54:27 17° NNW 21:57:37 10° NNE
H-2A R/B 2.0 21:57:54 22° S 22:00:32 77° WSW 22:04:44 10° NNW
Cosmos 1697 Rocket 2.8 21:58:03 10° SSW 22:03:43 78° WNW 22:09:24 10° NNE
Nimbus 7 Rocket 4.4 22:01:09 10° NNE 22:07:14 70° ESE 22:13:17 10° S
SL-08 RB Rocket 4.1 22:05:54 33° ESE 22:07:32 47° ENE 22:11:59 10° N
Cosmos 2228 3.4 22:07:20 37° ESE 22:08:06 41° E 22:12:09 10° NNE
Envisat 3.6 22:03:38 11° S 22:08:19 54° W 22:13:20 10° NNW
Cosmos 2100 Rocket 4.3 22:03:26 10° SSW 22:09:41 71° W 22:15:55 10° N
Cosmos 1758 Rocket 3.7 22:08:19 10° NNW 22:12:40 71° W 22:15:05 25° S
SL-16 R/B 2.8 22:13:10 32° SE 22:14:09 35° ESE 22:19:15 10° NE
Tsikada Rocket 4.0 22:08:55 10° N 22:15:24 80° E 22:19:18 26° SSE
NOAA 11 4.2 22:13:22 31° SSE 22:16:02 70° ENE 22:21:30 10° N
deb Chang Zheng 4 3.6 22:13:46 10° NNE 22:18:16 87° WNW 22:21:50 16° SSW
ARGOS 3.1 22:16:23 33° SSE 22:18:53 73° ENE 22:24:17 10° NNW
CZ-4B R/B 3.8 22:15:08 10° NNE 22:19:36 39° E 22:20:03 38° ESE
SL-19 R/B 4.3 22:14:15 10° NNE 22:19:38 52° E 22:21:42 33° SSE
Cosmos 1842 3.4 22:16:04 10° NNW 22:19:58 69° W 22:21:25 36° S
Cosmos 2061 Rocket 4.4 22:13:51 10° SSW 22:20:07 66° WNW 22:26:21 10° N
Lacrosse 5 3.7 22:17:40 10° WNW 22:21:27 22° SW 22:24:05 15° SSW
GP-B 4.2 22:18:35 10° NNE 22:22:13 27° ENE 22:22:13 27° ENE
PSLV R/B 3.3 22:22:35 64° SW 22:22:47 67° WSW 22:25:51 10° NNW
Cosmos 1980 Rocket 2.2 22:21:34 10° SSW 22:27:15 82° WNW 22:33:00 10° NNE
Cosmos 2360 Rocket 3.9 22:30:08 16° ENE 22:30:08 16° ENE 22:32:08 10° ENE
Cosmos 1707 3.9 22:25:10 10° N 22:28:24 30° ENE 22:28:24 30° ENE
H-2A R/B 2.3 22:27:29 39° ESE 22:28:42 48° ENE 22:33:25 10° N
MetOp-B 4.5 22:28:11 24° S 22:31:22 61° WSW 22:36:42 10° NNW
SPOT 5 3.6 22:28:37 22° SSW 22:31:39 50° W 22:36:17 10° NNW
Cosmos 1816 Rocket 4.5 22:28:07 10° N 22:34:32 87° E 22:37:39 33° S
Cosmos 332 Rocket 4.1 22:35:54 46° ESE 22:35:54 46° ESE 22:40:32 10° NE
Cosmos 1666 3.0 22:35:55 38° SW 22:37:11 64° WNW 22:40:59 10° N
Meteor 2-17 Rocket 4.4 22:36:21 38° SSE 22:38:39 63° E 22:44:37 10° NNE
Cosmos 371 Rocket 4.3 22:40:13 30° ENE 22:40:13 30° ENE 22:43:24 10° NE
CZ-4 SHROUD 4.0 22:39:09 45° W 22:39:09 45° W 22:42:06 10° NNW
Landsat 7 3.8 22:39:00 53° SE 22:39:56 67° ENE 22:44:41 10° N
Cosmos 836 Rocket 4.4 22:36:58 22° SSW 22:40:27 82° ESE 22:45:48 10° NNE
Cosmos 1725 Rocket 4.0 22:37:55 20° S 22:42:27 84° W 22:48:46 10° N
Cosmos 2058 Rocket 3.5 22:41:00 26° SSW 22:43:29 64° WNW 22:47:59 10° N
Cosmos 1763 Rocket 4.0 22:42:51 10° SW 22:47:52 58° WNW 22:52:54 10° NNE
SPOT 1/Viking Rocket 3.8 22:45:54 35° S 22:48:00 63° WSW 22:53:12 10° NNW
Cosmos 2098 Rocket 4.1 22:41:42 11° SSW 22:48:04 69° W 22:53:27 10° N
Cosmos 2263 Rocket 2.1 22:43:50 10° NNW 22:49:27 87° ENE 22:50:51 53° SSE
YAOGAN 6 4.2 22:50:43 26° SW 22:51:43 30° W 22:55:04 10° NNW
Meteor 2-5 Rocket 3.7 22:48:09 10° N 22:54:07 78° ENE 22:55:38 51° SSE
Cosmos 1125 Rocket 4.2 22:49:14 10° NNW 22:54:13 47° WSW 22:55:59 34° SSW
Terra 1.8 22:54:47 62° ESE 22:55:14 66° ENE 22:59:59 10° N
CZ-4 R/B 3.7 22:53:51 10° NNE 22:58:36 70° ESE 22:58:49 69° SE
CARTOSAT-1 3.5 22:58:50 72° ENE 22:58:50 72° ENE 23:03:09 10° N
Cosmos 2322 Rocket 2.0 22:58:39 41° SSW 23:00:42 79° ESE 23:06:21 10° NNE
Cosmos 1441 Rocket 4.1 23:00:54 10° N 23:03:56 42° NNE 23:03:56 42° NNE
DELTA 2 DEB (DPAF) 4.0 23:05:49 79° SSW 23:06:01 83° WSW 23:10:32 10° NNW
Cosmos 2233 Rocket 3.9 23:03:44 40° S 23:06:12 88° W 23:12:31 10° N
USA 215 3.2 23:06:04 49° SE 23:08:02 77° SW 23:14:37 10° WNW
Meteor 1-24 Rocket 3.9 23:03:09 10° N 23:09:11 63° ENE 23:10:08 55° ESE
Genesis I 3.7 23:08:52 10° NW 23:12:08 57° NW 23:12:08 57° NW
Cosmos 405 Rocket 3.8 23:10:35 10° NNW 23:13:54 38° W 23:13:54 38° W
Cosmos 1812 Rocket 3.7 23:21:13 71° NNW 23:21:13 71° NNW 23:25:11 10° N
Cosmos 540 Rocket 3.5 23:22:20 62° SW 23:23:10 78° WNW 23:28:21 10° NNE
Spot 4 3.7 23:24:04 86° NNE 23:24:04 86° NNE 23:28:47 10° NNW
IGS 5A 4.0 23:28:34 57° NW 23:28:34 57° NW 23:32:08 10° NNW
COSMOS 2428 4.3 23:30:56 21° ENE 23:30:56 21° ENE 23:33:23 10° NE
Cosmos 2034 Rocket 4.1 23:30:12 53° E 23:30:16 53° E 23:36:16 10° NNE
CZ-4C R/B 4.3 23:33:23 46° W 23:33:23 46° W 23:37:28 10° NNW
Cosmos 2278 Rocket 3.3 23:34:13 10° NNW 23:39:19 33° NE 23:40:20 30° ENE
Cosmos 1092 Rocket 4.5 23:33:14 10° N 23:39:20 45° ENE 23:39:48 45° E
DMSP B5D2-2 4.1 23:40:30 10° NNE 23:45:48 78° WNW 23:46:00 76° W
Cosmos 1464 Rocket 3.9 23:51:41 69° SSW 23:52:32 84° W 23:58:56 10° N
